Вернуться в каталог

ARIANE 2 R/B

АктивенHEO
NORAD 19622·ROCKET BODY·🇫🇷 France

Запущен Oct 28, 1988 с Guiana Space Centre

Loading…

Ближайшие Пролёты (ближайшие 24 часа)

TLE

СвежийSource: Space-Track

Эпоха: Sep 14, 2026, 18:05 UTC

1 19622U 88098B   26257.75347549  .00000945  00000-0  52155-3 0  9998
2 19622   3.8132  98.3553 5877842 357.1454   0.6488  4.16027304429910

Отслеживайте ARIANE 2 R/B в реальном времени с AllMySat

Download on the App Store